Weather in Bredy

Russia / Chelyabinsk Oblast     52°25′20″N   60°20′12″E
temp.,
°C
wind,
m/s
gust,
m/s
humid.,
%
clouds,
%
prec.,
mm/h
press.,
hPa
HPBL,
m
8 march, mon
mon823:00−14nw7138353 0.3 1012307
02:00−18wnw598933 0.0 1015136
05:00−19wsw459017 0.0 101663
08:00−16sw6119154 0.0 1016208
11:00−13sw7139077 0.0 1015379
14:00−9sw101787100 0.0 1013835
17:00−6sw111787100 0.1 10131073
20:00−6sw101788100 0.1 1013896
9 march, tue
tue923:00−6sw91789100 0.1 1013789
02:00−7sw91789100 0.1 1012669
05:00−8sw101987100 0.1 1012570
08:00−9sw91788100 0.0 1012506
11:00−7sw91590100 0.0 1013535
14:00−5sw71191100 0.0 1013533
17:00−5sw5892100 0.0 1013432
20:00−6sw3893100 0.0 1013280
10 march, wed
wed1023:00−7ssw3497100 0.0 101280
02:00−7ssw3497100 0.3 1009128
05:00−6s3896100 1.0 1006288
08:00−6s51095100 0.3 1003331
11:00−4ssw71293100 0.6 1001768
14:00−7wsw101486100 0.1 1001734
17:00−8w91479100 0.1 10031050
20:00−11wsw9178154 0.0 1005603
11 march, thu
thu1123:00−15wsw9168427 0.0 1007469
02:00−17w815870 0.0 1008419
05:00−20w714880 0.0 1010364
08:00−22w613860 0.0 1011325
11:00−20wnw6109018 0.0 1013403
14:00−17w688997 0.0 1015515
17:00−16wnw579099 0.1 1017497
20:00−17w369599 0.1 1020133
12 march, fri
fri1223:00−20wnw449184 0.1 102458
02:00−23wnw33890 0.0 102620
05:00−24wnw33870 0.0 102721
08:00−24w34820 0.0 102933
11:00−18w34830 0.0 1029165
14:00−13w23760 0.0 1028254
17:00−13wsw23880 0.0 102874
20:00−18w33830 0.0 102920